STARLINK-3275 (50188 NORAD) Tracking and Keplerian Element Data
This shows tracking and keplerian element data for the satellite.
Feedback or suggestion? Click here.
Element | Value |
Catalog | 50188 |
Name | STARLINK-3275 |
Epoch Orbit | 2398 |
Epoch Day | 140.91667824 |
Epoch Year | 2022 |
RAAN | 353.5604 |
Inclination | 53.2154 |
Eccentricity | 0.0001957 |
Argument of Perigee | 39.0174 |
Mean Anonmoly | 254.0924 |
Mean Motion | 15.08828232 |
Decay Rate | 0.00025603 |
L1 | 1 50188U 21125AJ 22140.91667824 .00025603 00000+0 16214-2 0 9996 |
L2 | 2 50188 53.2154 353.5604 0001957 39.0174 254.0924 15.08828232 23983 |
Live tracking and technical data element details for STARLINK-3275 (NORAD 50188). STARLINK-3275 can be tracked NOW for your location showing map with azimuth and elevation plus other details from your city location.
Track the satellite on the map from your city or location and see movement details for azimuth, elevation, latitude, longitude, range, height, and movement on the map or in text.
IsCatalogInMostPopularTable: catalog: 50188, numindb: 28
Update: records affected: 1
GetName: 50188 STARLINK-3275
Hit Count: updated at: Mon, 23 May 2022 21:03:22 GMT